owner,sensor,date,latitude,longitude,air_temperature,qcFlag 
WAVCIS,ioos:station:WAVCIS:CSI09:1,2013-01-01T00:00:00Z,29.1015,-89.9782,17.77,11111222 
WAVCIS,ioos:station:WAVCIS:CSI09:1,2013-01-01T01:00:00Z,29.1015,-89.9782,17.86,11111222 
WAVCIS,ioos:station:WAVCIS:CSI09:1,2013-01-01T02:00:00Z,29.1015,-89.9782,18.11,11111222 
WAVCIS,ioos:station:WAVCIS:CSI09:1,2013-01-01T03:00:00Z,29.1015,-89.9782,18.26,11111222 
WAVCIS,ioos:station:WAVCIS:CSI09:1,2013-01-01T04:00:00Z,29.1015,-89.9782,18.59,11111222 
WAVCIS,ioos:station:WAVCIS:CSI09:1,2013-01-01T05:00:00Z,29.1015,-89.9782,18.8,11111222 
WAVCIS,ioos:station:WAVCIS:CSI09:1,2013-01-01T06:00:00Z,29.1015,-89.9782,19.21,11111222 
WAVCIS,ioos:station:WAVCIS:CSI09:1,2013-01-01T07:00:00Z,29.1015,-89.9782,19.84,11111222 
WAVCIS,ioos:station:WAVCIS:CSI09:1,2013-01-01T08:00:00Z,29.1015,-89.9782,19.77,11111222 
WAVCIS,ioos:station:WAVCIS:CSI09:1,2013-01-01T09:00:00Z,29.1015,-89.9782,19.71,11111222 
WAVCIS,ioos:station:WAVCIS:CSI09:1,2013-01-01T10:00:00Z,29.1015,-89.9782,19.68,11111222 
WAVCIS,ioos:station:WAVCIS:CSI09:1,2013-01-01T11:00:00Z,29.1015,-89.9782,19.91,11111222 
WAVCIS,ioos:station:WAVCIS:CSI09:1,2013-01-01T12:00:00Z,29.1015,-89.9782,20.34,11111222 
WAVCIS,ioos:station:WAVCIS:CSI09:1,2013-01-01T13:00:00Z,29.1015,-89.9782,20.22,11111222 
WAVCIS,ioos:station:WAVCIS:CSI09:1,2013-01-01T14:00:00Z,29.1015,-89.9782,20.48,11111222 
WAVCIS,ioos:station:WAVCIS:CSI09:1,2013-01-01T15:00:00Z,29.1015,-89.9782,21.2,11111222 
WAVCIS,ioos:station:WAVCIS:CSI09:1,2013-01-01T16:00:00Z,29.1015,-89.9782,20.95,11111222 
WAVCIS,ioos:station:WAVCIS:CSI09:1,2013-01-01T17:00:00Z,29.1015,-89.9782,20.91,11111222 
WAVCIS,ioos:station:WAVCIS:CSI09:1,2013-01-01T18:00:00Z,29.1015,-89.9782,20.93,11111222 
WAVCIS,ioos:station:WAVCIS:CSI09:1,2013-01-01T19:00:00Z,29.1015,-89.9782,21.15,11111222 
WAVCIS,ioos:station:WAVCIS:CSI09:1,2013-01-01T20:00:00Z,29.1015,-89.9782,22.43,11111222 
WAVCIS,ioos:station:WAVCIS:CSI09:1,2013-01-01T21:00:00Z,29.1015,-89.9782,23.74,11111222 
WAVCIS,ioos:station:WAVCIS:CSI09:1,2013-01-01T22:00:00Z,29.1015,-89.9782,23.3,11111222 
WAVCIS,ioos:station:WAVCIS:CSI09:1,2013-01-01T23:00:00Z,29.1015,-89.9782,22.75,11111222 
WAVCIS,ioos:station:WAVCIS:CSI09:1,2013-01-02T00:00:00Z,29.1015,-89.9782,22.9,11111222 
WAVCIS,ioos:station:WAVCIS:CSI09:1,2013-01-02T01:00:00Z,29.1015,-89.9782,22.37,11111222 
WAVCIS,ioos:station:WAVCIS:CSI09:1,2013-01-02T02:00:00Z,29.1015,-89.9782,18.28,11111222 
WAVCIS,ioos:station:WAVCIS:CSI09:1,2013-01-02T03:00:00Z,29.1015,-89.9782,13.95,11111222 
WAVCIS,ioos:station:WAVCIS:CSI09:1,2013-01-02T04:00:00Z,29.1015,-89.9782,13.9,11111222 
WAVCIS,ioos:station:WAVCIS:CSI09:1,2013-01-02T05:00:00Z,29.1015,-89.9782,13.73,11111222 
WAVCIS,ioos:station:WAVCIS:CSI09:1,2013-01-02T06:00:00Z,29.1015,-89.9782,13.52,11111222 
WAVCIS,ioos:station:WAVCIS:CSI09:1,2013-01-02T07:00:00Z,29.1015,-89.9782,13.41,11111222 
WAVCIS,ioos:station:WAVCIS:CSI09:1,2013-01-02T08:00:00Z,29.1015,-89.9782,13.11,11111222 
WAVCIS,ioos:station:WAVCIS:CSI09:1,2013-01-02T09:00:00Z,29.1015,-89.9782,12.69,11111222 
WAVCIS,ioos:station:WAVCIS:CSI09:1,2013-01-02T10:00:00Z,29.1015,-89.9782,12.24,11111222 
WAVCIS,ioos:station:WAVCIS:CSI09:1,2013-01-02T11:00:00Z,29.1015,-89.9782,11.9,11111222 
WAVCIS,ioos:station:WAVCIS:CSI09:1,2013-01-02T12:00:00Z,29.1015,-89.9782,11.54,11111222 
WAVCIS,ioos:station:WAVCIS:CSI09:1,2013-01-02T13:00:00Z,29.1015,-89.9782,10.99,11111222 
WAVCIS,ioos:station:WAVCIS:CSI09:1,2013-01-02T14:00:00Z,29.1015,-89.9782,10.84,11111222 
WAVCIS,ioos:station:WAVCIS:CSI09:1,2013-01-02T15:00:00Z,29.1015,-89.9782,10.52,11111222 
WAVCIS,ioos:station:WAVCIS:CSI09:1,2013-01-02T16:00:00Z,29.1015,-89.9782,9.8,11111222 
WAVCIS,ioos:station:WAVCIS:CSI09:1,2013-01-02T17:00:00Z,29.1015,-89.9782,10.01,11111222 
WAVCIS,ioos:station:WAVCIS:CSI09:1,2013-01-02T18:00:00Z,29.1015,-89.9782,9.73,11111222 
WAVCIS,ioos:station:WAVCIS:CSI09:1,2013-01-02T19:00:00Z,29.1015,-89.9782,9.66,11111222 
WAVCIS,ioos:station:WAVCIS:CSI09:1,2013-01-02T20:00:00Z,29.1015,-89.9782,9.56,11111222 
WAVCIS,ioos:station:WAVCIS:CSI09:1,2013-01-02T21:00:00Z,29.1015,-89.9782,9.82,11111222 
WAVCIS,ioos:station:WAVCIS:CSI09:1,2013-01-02T22:00:00Z,29.1015,-89.9782,9.85,11111222 
WAVCIS,ioos:station:WAVCIS:CSI09:1,2013-01-02T23:00:00Z,29.1015,-89.9782,9.84,11111222 
WAVCIS,ioos:station:WAVCIS:CSI09:1,2013-01-03T00:00:00Z,29.1015,-89.9782,10.17,11111222 
WAVCIS,ioos:station:WAVCIS:CSI09:1,2013-01-03T01:00:00Z,29.1015,-89.9782,10.26,11111222 
WAVCIS,ioos:station:WAVCIS:CSI09:1,2013-01-03T02:00:00Z,29.1015,-89.9782,9.61,11111222 
WAVCIS,ioos:station:WAVCIS:CSI09:1,2013-01-03T03:00:00Z,29.1015,-89.9782,9.53,11111222 
WAVCIS,ioos:station:WAVCIS:CSI09:1,2013-01-03T04:00:00Z,29.1015,-89.9782,9.41,11111222 
WAVCIS,ioos:station:WAVCIS:CSI09:1,2013-01-03T05:00:00Z,29.1015,-89.9782,8.58,11111222 
WAVCIS,ioos:station:WAVCIS:CSI09:1,2013-01-03T06:00:00Z,29.1015,-89.9782,8.28,11111222 
WAVCIS,ioos:station:WAVCIS:CSI09:1,2013-01-03T07:00:00Z,29.1015,-89.9782,8.08,11111222 
WAVCIS,ioos:station:WAVCIS:CSI09:1,2013-01-03T08:00:00Z,29.1015,-89.9782,8.18,11111222 
WAVCIS,ioos:station:WAVCIS:CSI09:1,2013-01-03T09:00:00Z,29.1015,-89.9782,8.18,11111222 
WAVCIS,ioos:station:WAVCIS:CSI09:1,2013-01-03T10:00:00Z,29.1015,-89.9782,8.49,11111222 
WAVCIS,ioos:station:WAVCIS:CSI09:1,2013-01-03T11:00:00Z,29.1015,-89.9782,8.09,11111222 
WAVCIS,ioos:station:WAVCIS:CSI09:1,2013-01-03T12:00:00Z,29.1015,-89.9782,7.76,11111222 
WAVCIS,ioos:station:WAVCIS:CSI09:1,2013-01-03T13:00:00Z,29.1015,-89.9782,7.48,11111222 
WAVCIS,ioos:station:WAVCIS:CSI09:1,2013-01-03T14:00:00Z,29.1015,-89.9782,7.98,11111222 
WAVCIS,ioos:station:WAVCIS:CSI09:1,2013-01-03T15:00:00Z,29.1015,-89.9782,7.41,11111222 
WAVCIS,ioos:station:WAVCIS:CSI09:1,2013-01-03T16:00:00Z,29.1015,-89.9782,7.42,11111222 
WAVCIS,ioos:station:WAVCIS:CSI09:1,2013-01-03T17:00:00Z,29.1015,-89.9782,7.34,11111222 
WAVCIS,ioos:station:WAVCIS:CSI09:1,2013-01-03T18:00:00Z,29.1015,-89.9782,7.45,11111222 
WAVCIS,ioos:station:WAVCIS:CSI09:1,2013-01-03T19:00:00Z,29.1015,-89.9782,7.59,11111222 
WAVCIS,ioos:station:WAVCIS:CSI09:1,2013-01-03T20:00:00Z,29.1015,-89.9782,8.01,11111222 
WAVCIS,ioos:station:WAVCIS:CSI09:1,2013-01-03T21:00:00Z,29.1015,-89.9782,8.18,11111222 
WAVCIS,ioos:station:WAVCIS:CSI09:1,2013-01-03T22:00:00Z,29.1015,-89.9782,8.8,11111222 
WAVCIS,ioos:station:WAVCIS:CSI09:1,2013-01-03T23:00:00Z,29.1015,-89.9782,9.22,11111222 
WAVCIS,ioos:station:WAVCIS:CSI09:1,2013-01-04T00:00:00Z,29.1015,-89.9782,9.39,11111222 
WAVCIS,ioos:station:WAVCIS:CSI09:1,2013-01-04T01:00:00Z,29.1015,-89.9782,9.49,11111222 
WAVCIS,ioos:station:WAVCIS:CSI09:1,2013-01-04T02:00:00Z,29.1015,-89.9782,9.53,11111222 
WAVCIS,ioos:station:WAVCIS:CSI09:1,2013-01-04T03:00:00Z,29.1015,-89.9782,9.62,11111222 
WAVCIS,ioos:station:WAVCIS:CSI09:1,2013-01-04T04:00:00Z,29.1015,-89.9782,9.47,11111222 
WAVCIS,ioos:station:WAVCIS:CSI09:1,2013-01-04T05:00:00Z,29.1015,-89.9782,9.26,11111222 
WAVCIS,ioos:station:WAVCIS:CSI09:1,2013-01-04T06:00:00Z,29.1015,-89.9782,9.11,11111222 
WAVCIS,ioos:station:WAVCIS:CSI09:1,2013-01-04T07:00:00Z,29.1015,-89.9782,8.92,11111222 
WAVCIS,ioos:station:WAVCIS:CSI09:1,2013-01-04T08:00:00Z,29.1015,-89.9782,8.71,11111222 
WAVCIS,ioos:station:WAVCIS:CSI09:1,2013-01-04T09:00:00Z,29.1015,-89.9782,8.38,11111222 
WAVCIS,ioos:station:WAVCIS:CSI09:1,2013-01-04T10:00:00Z,29.1015,-89.9782,8.62,11111222 
WAVCIS,ioos:station:WAVCIS:CSI09:1,2013-01-04T11:00:00Z,29.1015,-89.9782,9.07,11111222 
WAVCIS,ioos:station:WAVCIS:CSI09:1,2013-01-04T12:00:00Z,29.1015,-89.9782,9.19,11111222 
WAVCIS,ioos:station:WAVCIS:CSI09:1,2013-01-04T13:00:00Z,29.1015,-89.9782,9.39,11111222 
WAVCIS,ioos:station:WAVCIS:CSI09:1,2013-01-04T14:00:00Z,29.1015,-89.9782,9.34,11111222 
WAVCIS,ioos:station:WAVCIS:CSI09:1,2013-01-04T15:00:00Z,29.1015,-89.9782,9.44,11111222 
WAVCIS,ioos:station:WAVCIS:CSI09:1,2013-01-04T16:00:00Z,29.1015,-89.9782,9.42,11111222 
WAVCIS,ioos:station:WAVCIS:CSI09:1,2013-01-04T17:00:00Z,29.1015,-89.9782,9.76,11111222 
WAVCIS,ioos:station:WAVCIS:CSI09:1,2013-01-04T18:00:00Z,29.1015,-89.9782,9.95,11111222 
WAVCIS,ioos:station:WAVCIS:CSI09:1,2013-01-04T19:00:00Z,29.1015,-89.9782,10.25,11111222 
WAVCIS,ioos:station:WAVCIS:CSI09:1,2013-01-04T20:00:00Z,29.1015,-89.9782,10.38,11111222 
WAVCIS,ioos:station:WAVCIS:CSI09:1,2013-01-04T21:00:00Z,29.1015,-89.9782,10.49,11111222 
WAVCIS,ioos:station:WAVCIS:CSI09:1,2013-01-04T22:00:00Z,29.1015,-89.9782,11.0,11111222 
WAVCIS,ioos:station:WAVCIS:CSI09:1,2013-01-04T23:00:00Z,29.1015,-89.9782,11.1,11111222 
WAVCIS,ioos:station:WAVCIS:CSI09:1,2013-01-05T00:00:00Z,29.1015,-89.9782,11.5,11111222 
WAVCIS,ioos:station:WAVCIS:CSI09:1,2013-01-05T01:00:00Z,29.1015,-89.9782,11.72,11111222 
WAVCIS,ioos:station:WAVCIS:CSI09:1,2013-01-05T02:00:00Z,29.1015,-89.9782,11.93,11111222 
WAVCIS,ioos:station:WAVCIS:CSI09:1,2013-01-05T03:00:00Z,29.1015,-89.9782,12.33,11111222 
WAVCIS,ioos:station:WAVCIS:CSI09:1,2013-01-05T04:00:00Z,29.1015,-89.9782,12.4,11111222 
WAVCIS,ioos:station:WAVCIS:CSI09:1,2013-01-05T05:00:00Z,29.1015,-89.9782,12.45,11111222 
WAVCIS,ioos:station:WAVCIS:CSI09:1,2013-01-05T06:00:00Z,29.1015,-89.9782,12.58,11111222 
WAVCIS,ioos:station:WAVCIS:CSI09:1,2013-01-05T07:00:00Z,29.1015,-89.9782,12.82,11111222 
WAVCIS,ioos:station:WAVCIS:CSI09:1,2013-01-05T08:00:00Z,29.1015,-89.9782,12.92,11111222 
WAVCIS,ioos:station:WAVCIS:CSI09:1,2013-01-05T09:00:00Z,29.1015,-89.9782,13.4,11111222 
WAVCIS,ioos:station:WAVCIS:CSI09:1,2013-01-05T10:00:00Z,29.1015,-89.9782,13.59,11111222 
WAVCIS,ioos:station:WAVCIS:CSI09:1,2013-01-05T11:00:00Z,29.1015,-89.9782,13.92,11111222 
WAVCIS,ioos:station:WAVCIS:CSI09:1,2013-01-05T12:00:00Z,29.1015,-89.9782,14.32,11111222 
WAVCIS,ioos:station:WAVCIS:CSI09:1,2013-01-05T13:00:00Z,29.1015,-89.9782,14.41,11111222 
WAVCIS,ioos:station:WAVCIS:CSI09:1,2013-01-05T14:00:00Z,29.1015,-89.9782,14.5,11111222 
WAVCIS,ioos:station:WAVCIS:CSI09:1,2013-01-05T15:00:00Z,29.1015,-89.9782,12.83,11111222 
WAVCIS,ioos:station:WAVCIS:CSI09:1,2013-01-05T16:00:00Z,29.1015,-89.9782,11.98,11111222 
WAVCIS,ioos:station:WAVCIS:CSI09:1,2013-01-05T17:00:00Z,29.1015,-89.9782,12.68,11111222 
WAVCIS,ioos:station:WAVCIS:CSI09:1,2013-01-05T18:00:00Z,29.1015,-89.9782,13.06,11111222 
WAVCIS,ioos:station:WAVCIS:CSI09:1,2013-01-05T19:00:00Z,29.1015,-89.9782,13.63,11111222 
WAVCIS,ioos:station:WAVCIS:CSI09:1,2013-01-05T20:00:00Z,29.1015,-89.9782,13.65,11111222 
WAVCIS,ioos:station:WAVCIS:CSI09:1,2013-01-05T21:00:00Z,29.1015,-89.9782,15.07,11111222 
WAVCIS,ioos:station:WAVCIS:CSI09:1,2013-01-05T22:00:00Z,29.1015,-89.9782,13.4,11111222 
WAVCIS,ioos:station:WAVCIS:CSI09:1,2013-01-05T23:00:00Z,29.1015,-89.9782,13.85,11111222 
WAVCIS,ioos:station:WAVCIS:CSI09:1,2013-01-06T00:00:00Z,29.1015,-89.9782,12.99,11111222 
WAVCIS,ioos:station:WAVCIS:CSI09:1,2013-01-06T01:00:00Z,29.1015,-89.9782,12.81,11111222 
WAVCIS,ioos:station:WAVCIS:CSI09:1,2013-01-06T02:00:00Z,29.1015,-89.9782,12.61,11111222 
WAVCIS,ioos:station:WAVCIS:CSI09:1,2013-01-06T03:00:00Z,29.1015,-89.9782,13.01,11111222 
WAVCIS,ioos:station:WAVCIS:CSI09:1,2013-01-06T04:00:00Z,29.1015,-89.9782,13.11,11111222 
WAVCIS,ioos:station:WAVCIS:CSI09:1,2013-01-06T05:00:00Z,29.1015,-89.9782,13.28,11111222 
WAVCIS,ioos:station:WAVCIS:CSI09:1,2013-01-06T06:00:00Z,29.1015,-89.9782,13.42,11111222 
WAVCIS,ioos:station:WAVCIS:CSI09:1,2013-01-06T07:00:00Z,29.1015,-89.9782,13.56,11111222 
WAVCIS,ioos:station:WAVCIS:CSI09:1,2013-01-06T08:00:00Z,29.1015,-89.9782,13.64,11111222 
WAVCIS,ioos:station:WAVCIS:CSI09:1,2013-01-06T09:00:00Z,29.1015,-89.9782,14.07,11111222 
WAVCIS,ioos:station:WAVCIS:CSI09:1,2013-01-06T10:00:00Z,29.1015,-89.9782,14.03,11111222 
WAVCIS,ioos:station:WAVCIS:CSI09:1,2013-01-06T11:00:00Z,29.1015,-89.9782,14.77,11111222 
WAVCIS,ioos:station:WAVCIS:CSI09:1,2013-01-06T12:00:00Z,29.1015,-89.9782,15.18,11111222 
WAVCIS,ioos:station:WAVCIS:CSI09:1,2013-01-06T13:00:00Z,29.1015,-89.9782,15.04,11111222 
WAVCIS,ioos:station:WAVCIS:CSI09:1,2013-01-06T14:00:00Z,29.1015,-89.9782,14.15,11111222 
WAVCIS,ioos:station:WAVCIS:CSI09:1,2013-01-06T15:00:00Z,29.1015,-89.9782,10.7,11111222 
WAVCIS,ioos:station:WAVCIS:CSI09:1,2013-01-06T16:00:00Z,29.1015,-89.9782,10.43,11111222 
WAVCIS,ioos:station:WAVCIS:CSI09:1,2013-01-06T17:00:00Z,29.1015,-89.9782,10.28,11111222 
WAVCIS,ioos:station:WAVCIS:CSI09:1,2013-01-06T18:00:00Z,29.1015,-89.9782,9.96,11111222 
WAVCIS,ioos:station:WAVCIS:CSI09:1,2013-01-06T19:00:00Z,29.1015,-89.9782,9.8,11111222 
WAVCIS,ioos:station:WAVCIS:CSI09:1,2013-01-06T20:00:00Z,29.1015,-89.9782,9.46,11111222 
WAVCIS,ioos:station:WAVCIS:CSI09:1,2013-01-06T21:00:00Z,29.1015,-89.9782,10.1,11111222 
WAVCIS,ioos:station:WAVCIS:CSI09:1,2013-01-06T22:00:00Z,29.1015,-89.9782,9.8,11111222 
WAVCIS,ioos:station:WAVCIS:CSI09:1,2013-01-06T23:00:00Z,29.1015,-89.9782,10.62,11111222 
WAVCIS,ioos:station:WAVCIS:CSI09:1,2013-01-07T00:00:00Z,29.1015,-89.9782,10.85,11111222 
WAVCIS,ioos:station:WAVCIS:CSI09:1,2013-01-07T01:00:00Z,29.1015,-89.9782,10.83,11111222 
WAVCIS,ioos:station:WAVCIS:CSI09:1,2013-01-07T02:00:00Z,29.1015,-89.9782,11.15,11111222 
WAVCIS,ioos:station:WAVCIS:CSI09:1,2013-01-07T03:00:00Z,29.1015,-89.9782,10.74,11111222 
WAVCIS,ioos:station:WAVCIS:CSI09:1,2013-01-07T04:00:00Z,29.1015,-89.9782,10.64,11111222 
WAVCIS,ioos:station:WAVCIS:CSI09:1,2013-01-07T05:00:00Z,29.1015,-89.9782,10.96,11111222 
WAVCIS,ioos:station:WAVCIS:CSI09:1,2013-01-07T06:00:00Z,29.1015,-89.9782,11.05,11111222 
WAVCIS,ioos:station:WAVCIS:CSI09:1,2013-01-07T07:00:00Z,29.1015,-89.9782,11.62,11111222 
WAVCIS,ioos:station:WAVCIS:CSI09:1,2013-01-07T08:00:00Z,29.1015,-89.9782,11.38,11111222 
WAVCIS,ioos:station:WAVCIS:CSI09:1,2013-01-07T09:00:00Z,29.1015,-89.9782,11.32,11111222 
WAVCIS,ioos:station:WAVCIS:CSI09:1,2013-01-07T10:00:00Z,29.1015,-89.9782,10.93,11111222 
WAVCIS,ioos:station:WAVCIS:CSI09:1,2013-01-07T11:00:00Z,29.1015,-89.9782,10.66,11111222 
WAVCIS,ioos:station:WAVCIS:CSI09:1,2013-01-07T12:00:00Z,29.1015,-89.9782,10.92,11111222 
WAVCIS,ioos:station:WAVCIS:CSI09:1,2013-01-07T13:00:00Z,29.1015,-89.9782,11.24,11111222 
WAVCIS,ioos:station:WAVCIS:CSI09:1,2013-01-07T14:00:00Z,29.1015,-89.9782,11.62,11111222 
WAVCIS,ioos:station:WAVCIS:CSI09:1,2013-01-07T15:00:00Z,29.1015,-89.9782,12.04,11111222 
WAVCIS,ioos:station:WAVCIS:CSI09:1,2013-01-07T16:00:00Z,29.1015,-89.9782,12.64,11111222 
WAVCIS,ioos:station:WAVCIS:CSI09:1,2013-01-07T17:00:00Z,29.1015,-89.9782,12.48,11111222 
WAVCIS,ioos:station:WAVCIS:CSI09:1,2013-01-07T18:00:00Z,29.1015,-89.9782,12.58,11111222 
WAVCIS,ioos:station:WAVCIS:CSI09:1,2013-01-07T19:00:00Z,29.1015,-89.9782,12.48,11111222 
WAVCIS,ioos:station:WAVCIS:CSI09:1,2013-01-07T20:00:00Z,29.1015,-89.9782,12.18,11111222 
WAVCIS,ioos:station:WAVCIS:CSI09:1,2013-01-07T21:00:00Z,29.1015,-89.9782,12.34,11111222 
WAVCIS,ioos:station:WAVCIS:CSI09:1,2013-01-07T22:00:00Z,29.1015,-89.9782,12.31,11111222 
WAVCIS,ioos:station:WAVCIS:CSI09:1,2013-01-07T23:00:00Z,29.1015,-89.9782,12.22,11111222 
WAVCIS,ioos:station:WAVCIS:CSI09:1,2013-01-08T00:00:00Z,29.1015,-89.9782,12.65,11111222 
WAVCIS,ioos:station:WAVCIS:CSI09:1,2013-01-08T01:00:00Z,29.1015,-89.9782,13.3,11111222 
WAVCIS,ioos:station:WAVCIS:CSI09:1,2013-01-08T02:00:00Z,29.1015,-89.9782,14.18,11111222 
WAVCIS,ioos:station:WAVCIS:CSI09:1,2013-01-08T03:00:00Z,29.1015,-89.9782,14.9,11111222 
WAVCIS,ioos:station:WAVCIS:CSI09:1,2013-01-08T04:00:00Z,29.1015,-89.9782,15.03,11111222 
WAVCIS,ioos:station:WAVCIS:CSI09:1,2013-01-08T05:00:00Z,29.1015,-89.9782,15.34,11111222 
WAVCIS,ioos:station:WAVCIS:CSI09:1,2013-01-08T06:00:00Z,29.1015,-89.9782,16.03,11111222 
WAVCIS,ioos:station:WAVCIS:CSI09:1,2013-01-08T07:00:00Z,29.1015,-89.9782,15.96,11111222 
WAVCIS,ioos:station:WAVCIS:CSI09:1,2013-01-08T08:00:00Z,29.1015,-89.9782,15.93,11111222 
WAVCIS,ioos:station:WAVCIS:CSI09:1,2013-01-08T09:00:00Z,29.1015,-89.9782,16.04,11111222 
WAVCIS,ioos:station:WAVCIS:CSI09:1,2013-01-08T10:00:00Z,29.1015,-89.9782,16.0,11111222 
WAVCIS,ioos:station:WAVCIS:CSI09:1,2013-01-08T11:00:00Z,29.1015,-89.9782,15.6,11111222 
WAVCIS,ioos:station:WAVCIS:CSI09:1,2013-01-08T12:00:00Z,29.1015,-89.9782,15.69,11111222 
WAVCIS,ioos:station:WAVCIS:CSI09:1,2013-01-08T13:00:00Z,29.1015,-89.9782,15.94,11111222 
WAVCIS,ioos:station:WAVCIS:CSI09:1,2013-01-08T14:00:00Z,29.1015,-89.9782,16.06,11111222 
WAVCIS,ioos:station:WAVCIS:CSI09:1,2013-01-08T15:00:00Z,29.1015,-89.9782,16.46,11111222 
WAVCIS,ioos:station:WAVCIS:CSI09:1,2013-01-08T16:00:00Z,29.1015,-89.9782,16.7,11111222 
WAVCIS,ioos:station:WAVCIS:CSI09:1,2013-01-08T17:00:00Z,29.1015,-89.9782,16.65,11111222 
WAVCIS,ioos:station:WAVCIS:CSI09:1,2013-01-08T18:00:00Z,29.1015,-89.9782,16.33,11111222 
WAVCIS,ioos:station:WAVCIS:CSI09:1,2013-01-08T19:00:00Z,29.1015,-89.9782,16.67,11111222 
WAVCIS,ioos:station:WAVCIS:CSI09:1,2013-01-08T20:00:00Z,29.1015,-89.9782,16.93,11111222 
WAVCIS,ioos:station:WAVCIS:CSI09:1,2013-01-08T21:00:00Z,29.1015,-89.9782,17.01,11111222 
WAVCIS,ioos:station:WAVCIS:CSI09:1,2013-01-08T22:00:00Z,29.1015,-89.9782,17.35,11111222 
WAVCIS,ioos:station:WAVCIS:CSI09:1,2013-01-08T23:00:00Z,29.1015,-89.9782,17.53,11111222 
WAVCIS,ioos:station:WAVCIS:CSI09:1,2013-01-09T00:00:00Z,29.1015,-89.9782,17.63,11111222 
WAVCIS,ioos:station:WAVCIS:CSI09:1,2013-01-09T01:00:00Z,29.1015,-89.9782,17.58,11111222 
WAVCIS,ioos:station:WAVCIS:CSI09:1,2013-01-09T02:00:00Z,29.1015,-89.9782,17.27,11111222 
WAVCIS,ioos:station:WAVCIS:CSI09:1,2013-01-09T03:00:00Z,29.1015,-89.9782,17.39,11111222 
WAVCIS,ioos:station:WAVCIS:CSI09:1,2013-01-09T04:00:00Z,29.1015,-89.9782,17.68,11111222 
WAVCIS,ioos:station:WAVCIS:CSI09:1,2013-01-09T05:00:00Z,29.1015,-89.9782,17.59,11111222 
WAVCIS,ioos:station:WAVCIS:CSI09:1,2013-01-09T06:00:00Z,29.1015,-89.9782,17.62,11111222 
WAVCIS,ioos:station:WAVCIS:CSI09:1,2013-01-09T07:00:00Z,29.1015,-89.9782,17.39,11111222 
WAVCIS,ioos:station:WAVCIS:CSI09:1,2013-01-09T08:00:00Z,29.1015,-89.9782,17.13,11111222 
WAVCIS,ioos:station:WAVCIS:CSI09:1,2013-01-09T09:00:00Z,29.1015,-89.9782,17.29,11111222 
WAVCIS,ioos:station:WAVCIS:CSI09:1,2013-01-09T10:00:00Z,29.1015,-89.9782,17.35,11111222 
WAVCIS,ioos:station:WAVCIS:CSI09:1,2013-01-09T11:00:00Z,29.1015,-89.9782,17.35,11111222 
WAVCIS,ioos:station:WAVCIS:CSI09:1,2013-01-09T12:00:00Z,29.1015,-89.9782,17.39,11111222 
WAVCIS,ioos:station:WAVCIS:CSI09:1,2013-01-09T13:00:00Z,29.1015,-89.9782,17.02,11111222 
WAVCIS,ioos:station:WAVCIS:CSI09:1,2013-01-09T14:00:00Z,29.1015,-89.9782,16.95,11111222 
WAVCIS,ioos:station:WAVCIS:CSI09:1,2013-01-09T15:00:00Z,29.1015,-89.9782,17.91,11111222 
WAVCIS,ioos:station:WAVCIS:CSI09:1,2013-01-09T16:00:00Z,29.1015,-89.9782,18.26,11111222 
WAVCIS,ioos:station:WAVCIS:CSI09:1,2013-01-09T17:00:00Z,29.1015,-89.9782,18.85,11111222 
WAVCIS,ioos:station:WAVCIS:CSI09:1,2013-01-09T18:00:00Z,29.1015,-89.9782,18.69,11111222 
WAVCIS,ioos:station:WAVCIS:CSI09:1,2013-01-09T19:00:00Z,29.1015,-89.9782,18.68,11111222 
WAVCIS,ioos:station:WAVCIS:CSI09:1,2013-01-09T20:00:00Z,29.1015,-89.9782,19.09,11111222 
WAVCIS,ioos:station:WAVCIS:CSI09:1,2013-01-09T21:00:00Z,29.1015,-89.9782,19.35,11111222 
WAVCIS,ioos:station:WAVCIS:CSI09:1,2013-01-09T22:00:00Z,29.1015,-89.9782,19.1,11111222 
WAVCIS,ioos:station:WAVCIS:CSI09:1,2013-01-09T23:00:00Z,29.1015,-89.9782,18.21,11111222 
WAVCIS,ioos:station:WAVCIS:CSI09:1,2013-01-10T00:00:00Z,29.1015,-89.9782,17.76,11111222 
WAVCIS,ioos:station:WAVCIS:CSI09:1,2013-01-10T01:00:00Z,29.1015,-89.9782,17.82,11111222 
WAVCIS,ioos:station:WAVCIS:CSI09:1,2013-01-10T02:00:00Z,29.1015,-89.9782,17.97,11111222 
WAVCIS,ioos:station:WAVCIS:CSI09:1,2013-01-10T03:00:00Z,29.1015,-89.9782,17.85,11111222 
WAVCIS,ioos:station:WAVCIS:CSI09:1,2013-01-10T04:00:00Z,29.1015,-89.9782,17.83,11111222 
WAVCIS,ioos:station:WAVCIS:CSI09:1,2013-01-10T05:00:00Z,29.1015,-89.9782,17.92,11111222 
WAVCIS,ioos:station:WAVCIS:CSI09:1,2013-01-10T06:00:00Z,29.1015,-89.9782,18.01,11111222 
WAVCIS,ioos:station:WAVCIS:CSI09:1,2013-01-10T07:00:00Z,29.1015,-89.9782,17.55,11111222 
WAVCIS,ioos:station:WAVCIS:CSI09:1,2013-01-10T08:00:00Z,29.1015,-89.9782,17.44,11111222 
WAVCIS,ioos:station:WAVCIS:CSI09:1,2013-01-10T09:00:00Z,29.1015,-89.9782,17.65,11111222 
WAVCIS,ioos:station:WAVCIS:CSI09:1,2013-01-10T10:00:00Z,29.1015,-89.9782,18.19,11111222 
WAVCIS,ioos:station:WAVCIS:CSI09:1,2013-01-10T11:00:00Z,29.1015,-89.9782,17.94,11111222 
WAVCIS,ioos:station:WAVCIS:CSI09:1,2013-01-10T12:00:00Z,29.1015,-89.9782,18.18,11111222 
WAVCIS,ioos:station:WAVCIS:CSI09:1,2013-01-10T13:00:00Z,29.1015,-89.9782,18.19,11111222 
WAVCIS,ioos:station:WAVCIS:CSI09:1,2013-01-10T14:00:00Z,29.1015,-89.9782,18.19,11111222 
WAVCIS,ioos:station:WAVCIS:CSI09:1,2013-01-10T15:00:00Z,29.1015,-89.9782,18.1,11111222 
WAVCIS,ioos:station:WAVCIS:CSI09:1,2013-01-10T16:00:00Z,29.1015,-89.9782,18.35,11111222 
WAVCIS,ioos:station:WAVCIS:CSI09:1,2013-01-10T17:00:00Z,29.1015,-89.9782,15.99,11111222 
WAVCIS,ioos:station:WAVCIS:CSI09:1,2013-01-10T18:00:00Z,29.1015,-89.9782,16.22,11111222 
WAVCIS,ioos:station:WAVCIS:CSI09:1,2013-01-10T19:00:00Z,29.1015,-89.9782,16.46,11111222 
WAVCIS,ioos:station:WAVCIS:CSI09:1,2013-01-10T20:00:00Z,29.1015,-89.9782,16.76,11111222 
WAVCIS,ioos:station:WAVCIS:CSI09:1,2013-01-10T21:00:00Z,29.1015,-89.9782,16.75,11111222 
WAVCIS,ioos:station:WAVCIS:CSI09:1,2013-01-10T22:00:00Z,29.1015,-89.9782,16.68,11111222 
WAVCIS,ioos:station:WAVCIS:CSI09:1,2013-01-10T23:00:00Z,29.1015,-89.9782,16.29,11111222 
WAVCIS,ioos:station:WAVCIS:CSI09:1,2013-01-11T00:00:00Z,29.1015,-89.9782,16.64,11111222 
WAVCIS,ioos:station:WAVCIS:CSI09:1,2013-01-11T01:00:00Z,29.1015,-89.9782,17.27,11111222 
WAVCIS,ioos:station:WAVCIS:CSI09:1,2013-01-11T02:00:00Z,29.1015,-89.9782,17.77,11111222 
WAVCIS,ioos:station:WAVCIS:CSI09:1,2013-01-11T03:00:00Z,29.1015,-89.9782,18.81,11111222 
WAVCIS,ioos:station:WAVCIS:CSI09:1,2013-01-11T04:00:00Z,29.1015,-89.9782,19.61,11111222 
WAVCIS,ioos:station:WAVCIS:CSI09:1,2013-01-11T05:00:00Z,29.1015,-89.9782,20.3,11111222 
WAVCIS,ioos:station:WAVCIS:CSI09:1,2013-01-11T06:00:00Z,29.1015,-89.9782,20.26,11111222 
WAVCIS,ioos:station:WAVCIS:CSI09:1,2013-01-11T07:00:00Z,29.1015,-89.9782,20.65,11111222 
WAVCIS,ioos:station:WAVCIS:CSI09:1,2013-01-11T08:00:00Z,29.1015,-89.9782,21.3,11111222 
WAVCIS,ioos:station:WAVCIS:CSI09:1,2013-01-11T09:00:00Z,29.1015,-89.9782,21.44,11111222 
WAVCIS,ioos:station:WAVCIS:CSI09:1,2013-01-11T10:00:00Z,29.1015,-89.9782,20.94,11111222 
WAVCIS,ioos:station:WAVCIS:CSI09:1,2013-01-11T11:00:00Z,29.1015,-89.9782,20.4,11111222 
WAVCIS,ioos:station:WAVCIS:CSI09:1,2013-01-11T12:00:00Z,29.1015,-89.9782,19.92,11111222 
WAVCIS,ioos:station:WAVCIS:CSI09:1,2013-01-11T13:00:00Z,29.1015,-89.9782,19.65,11111222 
WAVCIS,ioos:station:WAVCIS:CSI09:1,2013-01-11T14:00:00Z,29.1015,-89.9782,20.74,11111222 
WAVCIS,ioos:station:WAVCIS:CSI09:1,2013-01-11T15:00:00Z,29.1015,-89.9782,20.69,11111222 
WAVCIS,ioos:station:WAVCIS:CSI09:1,2013-01-11T16:00:00Z,29.1015,-89.9782,21.87,11111222 
WAVCIS,ioos:station:WAVCIS:CSI09:1,2013-01-11T17:00:00Z,29.1015,-89.9782,21.78,11111222 
WAVCIS,ioos:station:WAVCIS:CSI09:1,2013-01-11T18:00:00Z,29.1015,-89.9782,21.92,11111222 
WAVCIS,ioos:station:WAVCIS:CSI09:1,2013-01-11T19:00:00Z,29.1015,-89.9782,21.45,11111222 
WAVCIS,ioos:station:WAVCIS:CSI09:1,2013-01-11T20:00:00Z,29.1015,-89.9782,21.4,11111222 
WAVCIS,ioos:station:WAVCIS:CSI09:1,2013-01-11T21:00:00Z,29.1015,-89.9782,21.34,11111222 
WAVCIS,ioos:station:WAVCIS:CSI09:1,2013-01-11T22:00:00Z,29.1015,-89.9782,21.22,11111222 
WAVCIS,ioos:station:WAVCIS:CSI09:1,2013-01-11T23:00:00Z,29.1015,-89.9782,20.78,11111222 
WAVCIS,ioos:station:WAVCIS:CSI09:1,2013-01-12T00:00:00Z,29.1015,-89.9782,20.74,11111222 
WAVCIS,ioos:station:WAVCIS:CSI09:1,2013-01-12T01:00:00Z,29.1015,-89.9782,20.95,11111222 
WAVCIS,ioos:station:WAVCIS:CSI09:1,2013-01-12T02:00:00Z,29.1015,-89.9782,20.28,11111222 
WAVCIS,ioos:station:WAVCIS:CSI09:1,2013-01-12T03:00:00Z,29.1015,-89.9782,20.08,11111222 
WAVCIS,ioos:station:WAVCIS:CSI09:1,2013-01-12T04:00:00Z,29.1015,-89.9782,19.18,11111222 